www.pogodaiklimat.ru

Погода и климат >> Архив погоды >> Малайзия >> Лабуан


ПОГОДА в Лабуане

  • Прогноз погоды в Лабуане
  • Монитор погоды в Лабуане

АРХИВ ПОГОДЫ в Лабуане

Время (UTC), дата Ветер
(напр.,м/с)
 
Видим.   Явления Облачность Т
(С)
Тd
(С)
f
(%)
Тe
(С)
Тes
(С)
Комфортность P
(гПа)
Po
(гПа)
Тmin
(С)
Tmax
(С)
R
(мм)
R24
(мм)
S
(см)
00 9.06 ЮЗ 1 25 км {дождь} 9/3 50 м
[Cb cap Ac trans Ci sp]
+27.6 +25.0 86 +40 +42 очень
душно
1010.9 1007.6 +24.9 11
03 9.06 ЮЗ 3 25 км 9/1 450 м
[Cb cap Ac lent Ci sp]
+30.3 +24.6 72 +43 +50 опасность
перегрева
1011.0 1007.7
06 9.06 З 4 25 км 9/1 450 м
[Cb cap Ac lent Ci fib]
+31.7 +25.3 69 +46 +52 опасность
перегрева
1008.7 1005.4
09 9.06 З 4 25 км гроза без осадков 9/4 450 м
[Cb cap Ac trans Ci sp]
+29.8 +25.3 77 +44 +44 опасность
перегрева
1008.6 1005.3
12 9.06 З 2 9000 м слаб. дождь {гроза} 10/4 300 м
[Sc Ac trans Cs]
+26.7 +25.3 92 +39 +39 очень
душно
1010.1 1006.8 +32.2 1
15 9.06 Ю 2 15 км в посл. час дождь 10/4 400 м
[Cu Sc Ac lent Cs]
+25.8 +24.6 93 +36 +36 очень
душно
1011.6 1008.2
18 9.06 штиль 0 20 км {дождь} 9/1 400 м
[Cu Sc Ac trans Ci fib]
+25.5 +24.5 94 +36 +36 очень
душно
1009.2 1005.9 10
21 9.06 Ю 1 20 км 9/1 420 м
[Cu Sc Ac trans Ci fib]
+24.9 +24.1 95 +34 +34 очень
душно
1008.9 1005.5
00 10.06 Ю 1 25 км 9/4 450 м
[Cb cap Ac trans Ci fib]
+27.1 +24.6 86 +38 +40 очень
душно
1010.0 1006.7 +24.9 11
03 10.06 ЮЗ 1 25 км 9/3 420 м
[Cu Sc Ac trans Ci sp]
+31.0 +25.0 70 +44 +53 опасность
перегрева
1010.2 1006.9
06 10.06 ЮЗ 1 25 км 9/4 420 м
[Cu Sc Ac trans Ci fib]
+31.5 +24.8 68 +45 +52 опасность
перегрева
1008.6 1005.3
09 10.06 СЗ 2 25 км 9/4 420 м
[Cu Sc Ac trans Ci fib]
+31.2 +25.6 72 +46 +47 опасность
перегрева
1008.4 1005.1
12 10.06 штиль 0 20 км 9/3 450 м
[Cu Sc Ac und Ci sp]
+28.0 +25.3 85 +41 +41 опасность
перегрева
1009.7 1006.4 +32.5
15 10.06 ЮВ 1 20 км 9/4 450 м
[Cu Sc Ac und Ci sp]
+27.4 +25.9 92 +41 +41 опасность
перегрева
1011.0 1007.7
18 10.06 ЮВ 1 20 км 9/1 450 м
[Cu Sc Ac lent Ci sp]
+27.5 +25.2 87 +40 +40 очень
душно
1009.1 1005.8
21 10.06 Ю 1 20 км 9/1 450 м
[Cu Sc Ac lent Ci sp]
+27.0 +24.8 88 +39 +39 очень
душно
1009.0 1005.7
00 11.06 штиль 0 30 км 9/1 50 м
[Cu Sc Ac lent Ci sp]
+28.8 +26.0 85 +43 +46 опасность
перегрева
1010.4 1007.1 +26.4
03 11.06 СВ 2 30 км 9/3 450 м
[Cu Sc Ac lent Cs]
+32.1 +25.3 67 +46 +54 опасность
перегрева
1010.9 1007.6
06 11.06 штиль 0 30 км 9/1 450 м
[Cu Sc Ac lent Cs]
+32.2 +26.7 73 +50 +61 опасность
перегрева
1008.7 1005.4
09 11.06 СЗ 2 30 км 9/1 450 м
[Cb cap Ac lent Cs]
+32.0 +25.7 69 +47 +48 опасность
перегрева
1008.3 1005.0
12 11.06 штиль 0 20 км 9/3 450 м
[Cu Sc Ac trans Cs]
+28.7 +25.8 84 +43 +43 опасность
перегрева
1010.0 1006.7 +33.1
15 11.06 штиль 0 20 км 9/3 450 м
[Cu Sc Ac lent Ci fib]
+27.3 +25.6 90 +40 +40 очень
душно
1011.0 1007.7
18 11.06 штиль 0 20 км 9/3 420 м
[Cu Sc Ac lent Ci fib]
+27.9 +26.1 90 +42 +42 опасность
перегрева
1009.3 1006.0
21 11.06 штиль 0 25 км 9/3 420 м
[Cu Sc Ac lent Ci fib]
+27.1 +25.7 92 +40 +40 очень
душно
1009.4 1006.1
00 12.06 штиль 0 25 км 9/3 50 м
[Cu Sc Ac trans Cs]
+28.7 +26.3 87 +44 +46 опасность
перегрева
1011.2 1007.9 +26.5
03 12.06 Ю 2 30 км 9/3 420 м
[Cu Sc Ac trans Ci sp]
+32.0 +25.1 67 +46 +53 опасность
перегрева
1011.2 1007.9
06 12.06 штиль 0 30 км 9/4 420 м
[Cu Sc Ac lent Ci sp]
+31.8 +26.7 74 +49 +56 опасность
перегрева
1008.9 1005.6
09 12.06 СЗ 1 30 км 9/3 420 м
[Cu Sc Ac lent Cs]
+31.9 +25.4 69 +46 +48 опасность
перегрева
1007.6 1004.3
12 12.06 штиль 0 20 км 9/1 420 м
[Cu Sc Ac lent Cs]
+28.6 +25.3 82 +42 +42 опасность
перегрева
1009.2 1005.9 +33.2
15 12.06 штиль 0 20 км 9/1 420 м
[Cu Sc Ac As Cs]
+28.1 +25.6 86 +41 +41 опасность
перегрева
1010.3 1007.0
18 12.06 Ю 1 20 км 9/3 420 м
[Cu Sc Ac As Cs]
+27.6 +25.7 89 +41 +41 опасность
перегрева
1009.3 1006.0
21 12.06 Ю 1 20 км в посл. час дождь 9/3 400 м
[Cu Sc Ac As Cs]
+25.4 +24.6 95 +36 +36 очень
душно
1008.8 1005.5
00 13.06 З 2 5000 м слаб. дождь 9/8 <50 м
[Frnb Ac inh Cs]
+25.5 +24.3 93 +35 +36 очень
душно
1011.6 1008.2 +25.3 9
03 13.06 З 2 25 км в посл. час дождь 9/4 360 м
[Cu Sc Ac lent Cs]
+29.3 +27.1 88 +46 +53 опасность
перегрева
1011.2 1007.9
06 13.06 З 5 30 км {дождь} 9/3 400 м
[Cu Sc Ac lent Ci sp]
+30.8 +26.0 76 +46 +50 опасность
перегрева
1009.0 1005.7 2
09 13.06 З 3 30 км 9/3 400 м
[Cb cap Ac lent Ci sp]
+29.3 +25.3 79 +43 +44 опасность
перегрева
1008.2 1004.9
12 13.06 З 1 9000 м слаб. дождь 10/4 300 м
[Frnb Ac As Cs]
+27.5 +25.7 90 +41 +41 опасность
перегрева
1010.4 1007.1 +31.1 0.4
15 13.06 Ю 2 4000 м гроза, ливневой дождь 10/4 240 м
[Cb cap Ac As Cs]
+25.3 +24.8 97 +36 +36 очень
душно
1012.2 1008.8
18 13.06 штиль 0 7000 м слаб. дождь {гроза} 10/4 210 м
[Frnb Ac As Cs]
+25.5 +24.7 95 +36 +36 очень
душно
1010.6 1007.3 56
21 13.06 ЮЗ 1 15 км {дождь} 10/4 360 м
[Cu Sc Ac lent Cs]
+25.1 +23.8 93 +34 +34 очень
душно
1009.8 1006.4
00 14.06 Ю 2 25 км {дождь} 9/4 50 м
[Cu Sc Ac trans Ci sp]
+27.6 +24.8 85 +39 +41 очень
душно
1011.3 1008.0 +24.9 60
03 14.06 ЮЗ 3 25 км 9/1 450 м
[Cb calv Ac lent Ci fib]
+30.3 +25.0 73 +43 +52 опасность
перегрева
1011.5 1008.2
06 14.06 ЮЗ 2 25 км 9/3 450 м
[Cu Sc Ac trans Ci sp]
+31.1 +25.8 73 +46 +53 опасность
перегрева
1008.5 1005.2
09 14.06 З 2 25 км 9/3 450 м
[Cu Sc Ac trans Ci ing]
+30.7 +25.1 72 +44 +45 опасность
перегрева
1007.9 1004.6
12 14.06 штиль 0 20 км 9/3 450 м
[Cu Sc Ac lent Cs]
+28.7 +25.1 81 +42 +42 опасность
перегрева
1009.4 1006.1 +31.9
15 14.06 штиль 0 20 км 9/1 450 м
[Cu Sc Ac trans Cs]
+27.8 +25.2 86 +40 +40 очень
душно
1011.4 1008.1
18 14.06 В 1 20 км 9/4 450 м
[Cu Sc Ac trans Cs]
+27.8 +26.4 92 +42 +42 опасность
перегрева
1010.1 1006.8
21 14.06 штиль 0 20 км 9/1 450 м
[Cu Sc Ac lent Ci sp]
+26.8 +25.5 93 +39 +39 очень
душно
1009.7 1006.4
00 15.06 штиль 0 30 км 9/1 450 м
[Cu Sc Ac trans Cs]
+27.6 +25.0 86 +40 +43 очень
душно
1010.7 1007.4 +26.0
03 15.06 ЮВ 1 30 км 9/1 450 м
[Cu Sc Ac lent Cs]
+30.6 +25.8 76 +46 +56 опасность
перегрева
1009.9 1006.6
06 15.06 ЮЗ 1 30 км 9/1 450 м
[Cu Sc Ac trans Ci sp]
+32.2 +25.5 68 +47 +57 опасность
перегрева
1008.1 1004.8
09 15.06 З 3 30 км 9/1 450 м
[Cu Sc Ac lent Ci ing]
+31.5 +25.9 72 +47 +48 опасность
перегрева
1007.1 1003.8
12 15.06 З 1 20 км зарница 9/4 450 м
[Cb cap Ac lent Cs]
+28.8 +24.8 79 +41 +41 опасность
перегрева
1009.5 1006.2 +32.8
15 15.06 ЮВ 2 20 км 9/3 450 м
[Cu Sc Ac trans Ci fib]
+28.1 +25.4 85 +41 +41 опасность
перегрева
1011.4 1008.1
18 15.06 штиль 0 20 км 9/3 450 м
[Cu Sc Ac und Cs]
+27.5 +24.8 85 +39 +39 очень
душно
1010.1 1006.8
21 15.06 Ю 1 20 км 9/5 450 м
[Cu Sc Ac trans Cs]
+27.3 +24.6 85 +39 +39 очень
душно
1009.7 1006.4

 

Местоположение метеостанции Лабуан (Малайзия): широта 5.30 долгота 115.25 высота над уровнем моря 30 м.

В архиве по умолчанию представлена погода в Лабуане за последнюю неделю. Архивные данные за месяц целиком и за предыдущие месяцы, начиная с января 2011 года, Вы можете получить, выбрав интересующий диапазон дат из раскрывающегося списка и нажав кнопку "Ввод!".


*Определитесь, кто Вы:
робот инопланетянин человек

Внимание! Время в таблицах - всемирное. Для получения местного времени необходимо прибавить поправку, которая равна 8 ч.

Смотрите также архив погоды в соседних городах и на ближайших метеорологических станциях:

Погода в Бруней аэропорту (Бруней) (54 км)
Погода в Кота-Кинабалу (Малайзия) (113 км)
Погода в Мири (Малайзия) (177 км)
Погода в Лонгбаване (Индонезия) (181 км)
Погода в Тавау (Малайзия) (313 км)
Погода в Сандакане (Малайзия) (318 км)
Погода в Таракане (Индонезия) (337 км)
Погода в Бинталу (Малайзия) (339 км)
Погода в Танджунгселоре (Индонезия) (357 км)
Погода в Танджунгредепе (Индонезия) (430 км)

Пояснения к столбцам:

Ветер - указаны скорость ветра в м/с - средняя за 10 мин, порывы в срок и между сроками (в фигурных скобках) и направление, откуда дует ветер: С - северный, СВ - северо-восточный, В - восточный, ЮВ - юго-восточный, Ю - южный, ЮЗ - юго-западный, З - западный, СЗ - северо-западный.
Видимость - горизонтальная дальность видимости в метрах или километрах. При видимости от 1 до 10 км при отсутствии осадков обычно наблюдается дымка, при ухудшении видимости до 1 км и менее - туман. В сухую погоду видимость может ухудшаться дымом, пылью или мглою.
Явления - указаны атмосферные явления, наблюдавшиеся в срок или в последний час перед сроком; фигурными скобками обозначены явления, наблюдавшиеся между сроками (за 1-3 часа до срока); квадратными скобками обозначены град или гололедные отложения с указанием их диаметра в мм.
Облачность - указаны через наклонную черту общая и нижняя облачность в баллах и высота нижней границы облаков в метрах; квадратными скобками обозначены формы облаков: Ci - перистые, Cs - перисто-слоистые, Cc - перисто-кучевые, Ac - высококучевые, As - высокослоистые, Sc - слоисто-кучевые, Ns - слоисто-дождевые, Cu - кучевые, Cb - кучево-дождевые. Подробнее классификацию облаков см. в Атласе облаков (PDF).
T - Температура воздуха - температура, измеренная на высоте 2 м над землей.
Td - Температура точки росы - температура, при понижении до которой содержащийся в воздухе водяной пар достигнет насыщения.
f - Относительная влажность воздуха - влажноcть воздуха, измеренная на высоте 2 м над землей.
Te - Эффективная температура - температура, которую ощущает одетый по сезону человек в тени. Характеристика душности погоды. При расчете учитывается влияние влажности воздуха и скорости ветра на теплоощущения человека.
Tes - Эффективная температура на солнце - температура, которую ощущает человек, с поправкой на солнечный нагрев. Характеристика знойности погоды. Зависит от высоты солнца над горизонтом, облачности и скорости ветра. Ночью, в пасмурную погоду, а также при ветре 12 м/с и более поправка равна нулю.
P - Атмосферное давление - приведенное к уровню моря атмосферное давление.
Po - Атмосферное давление - измеренное на уровне метеостанции атмосферное давление.
Tmin - Минимальная температура - минимум температуры воздуха на высоте 2 м над землей.
Tmax - Максимальная температура - максимум температуры воздуха на высоте 2 м над землей.
R - Количество осадков - Количество выпавших осадков за период времени, мм. При наведении курсора мыши на число - период времени, за который выпало указанное количество осадков.
R24 - Количество осадков - Количество выпавших осадков за 24 часа, мм.
S - Снежный покров - Высота снежного покрова, см. При наведении курсора мыши на число - состояние снежного покрова и степень покрытия местности в баллах.